Year,Month,Day,Hour,Minute,Value (Times are PST for temperature in C)
2014,07,11,00,00,20.00
2014,07,11,00,01,20.10
2014,07,11,00,02,20.10
2014,07,11,00,03,20.20
2014,07,11,00,04,20.30
2014,07,11,00,05,20.40
2014,07,11,00,06,20.50
2014,07,11,00,07,20.50
2014,07,11,00,08,20.50
2014,07,11,00,09,20.40
2014,07,11,00,10,20.50
2014,07,11,00,11,20.50
2014,07,11,00,12,20.50
2014,07,11,00,13,20.50
2014,07,11,00,14,20.40
2014,07,11,00,15,20.30
2014,07,11,00,16,20.30
2014,07,11,00,17,20.30
2014,07,11,00,18,20.20
2014,07,11,00,19,20.10
2014,07,11,00,20,20.00
2014,07,11,00,21,19.90
2014,07,11,00,22,19.80
2014,07,11,00,23,19.70
2014,07,11,00,24,19.60
2014,07,11,00,25,19.50
2014,07,11,00,26,19.40
2014,07,11,00,27,19.30
2014,07,11,00,28,19.30
2014,07,11,00,29,19.20
2014,07,11,00,30,19.20
2014,07,11,00,31,19.20
2014,07,11,00,32,19.20
2014,07,11,00,33,19.20
2014,07,11,00,34,19.20
2014,07,11,00,35,19.20
2014,07,11,00,36,19.20
2014,07,11,00,37,19.30
2014,07,11,00,38,19.30
2014,07,11,00,39,19.30
2014,07,11,00,40,19.30
2014,07,11,00,41,19.30
2014,07,11,00,42,19.30
2014,07,11,00,43,19.30
2014,07,11,00,44,19.20
2014,07,11,00,45,19.10
2014,07,11,00,46,19.00
2014,07,11,00,47,18.90
2014,07,11,00,48,18.80
2014,07,11,00,49,18.80
2014,07,11,00,50,18.70
2014,07,11,00,51,18.70
2014,07,11,00,52,18.70
2014,07,11,00,53,18.70
2014,07,11,00,54,18.70
2014,07,11,00,55,18.60
2014,07,11,00,56,18.50
2014,07,11,00,57,18.50
2014,07,11,00,58,18.40
2014,07,11,00,59,18.30
2014,07,11,01,00,18.30
2014,07,11,01,01,18.20
2014,07,11,01,02,18.20
2014,07,11,01,03,18.10
2014,07,11,01,04,18.00
2014,07,11,01,05,18.00
2014,07,11,01,06,17.90
2014,07,11,01,07,17.80
2014,07,11,01,08,17.80
2014,07,11,01,09,17.70
2014,07,11,01,10,17.70
2014,07,11,01,11,17.70
2014,07,11,01,12,17.60
2014,07,11,01,13,17.60
2014,07,11,01,14,17.60
2014,07,11,01,15,17.50
2014,07,11,01,16,17.50
2014,07,11,01,17,17.50
2014,07,11,01,18,17.50
2014,07,11,01,19,17.40
2014,07,11,01,20,17.40
2014,07,11,01,21,17.40
2014,07,11,01,22,17.40
2014,07,11,01,23,17.40
2014,07,11,01,24,17.40
2014,07,11,01,25,17.40
2014,07,11,01,26,17.40
2014,07,11,01,27,17.40
2014,07,11,01,28,17.40
2014,07,11,01,29,17.40
2014,07,11,01,30,17.40
2014,07,11,01,31,17.40
2014,07,11,01,32,17.40
2014,07,11,01,33,17.40
2014,07,11,01,34,17.40
2014,07,11,01,35,17.40
2014,07,11,01,36,17.30
2014,07,11,01,37,17.30
2014,07,11,01,38,17.30
2014,07,11,01,39,17.30
2014,07,11,01,40,17.30
2014,07,11,01,41,17.20
2014,07,11,01,42,17.20
2014,07,11,01,43,17.20
2014,07,11,01,44,17.10
2014,07,11,01,45,17.10
2014,07,11,01,46,17.10
2014,07,11,01,47,17.00
2014,07,11,01,48,17.00
2014,07,11,01,49,17.00
2014,07,11,01,50,17.10
2014,07,11,01,51,17.10
2014,07,11,01,52,17.10
2014,07,11,01,53,17.10
2014,07,11,01,54,17.10
2014,07,11,01,55,17.10
2014,07,11,01,56,17.10
2014,07,11,01,57,17.10
2014,07,11,01,58,17.10
2014,07,11,01,59,17.10
2014,07,11,02,00,17.10
2014,07,11,02,01,17.10
2014,07,11,02,02,17.20
2014,07,11,02,03,17.10
2014,07,11,02,04,17.10
2014,07,11,02,05,17.10
2014,07,11,02,06,17.10
2014,07,11,02,07,17.10
2014,07,11,02,08,17.10
2014,07,11,02,09,17.00
2014,07,11,02,10,17.00
2014,07,11,02,11,17.00
2014,07,11,02,12,17.00
2014,07,11,02,13,17.00
2014,07,11,02,14,17.00
2014,07,11,02,15,17.00
2014,07,11,02,16,17.00
2014,07,11,02,17,17.00
2014,07,11,02,18,17.00
2014,07,11,02,19,17.00
2014,07,11,02,20,16.90
2014,07,11,02,21,16.90
2014,07,11,02,22,16.90
2014,07,11,02,23,16.90
2014,07,11,02,24,16.90
2014,07,11,02,25,16.90
2014,07,11,02,26,16.90
2014,07,11,02,27,16.90
2014,07,11,02,28,16.80
2014,07,11,02,29,16.80
2014,07,11,02,30,16.80
2014,07,11,02,31,16.80
2014,07,11,02,32,16.70
2014,07,11,02,33,16.70
2014,07,11,02,34,16.70
2014,07,11,02,35,16.70
2014,07,11,02,36,16.60
2014,07,11,02,37,16.60
2014,07,11,02,38,16.60
2014,07,11,02,39,16.60
2014,07,11,02,40,16.60
2014,07,11,02,41,16.50
2014,07,11,02,42,16.50
2014,07,11,02,43,16.50
2014,07,11,02,44,16.50
2014,07,11,02,45,16.40
2014,07,11,02,46,16.40
2014,07,11,02,47,16.40
2014,07,11,02,48,16.40
2014,07,11,02,49,16.40
2014,07,11,02,50,16.40
2014,07,11,02,51,16.40
2014,07,11,02,52,16.40
2014,07,11,02,53,16.40
2014,07,11,02,54,16.30
2014,07,11,02,55,16.30
2014,07,11,02,56,16.30
2014,07,11,02,57,16.30
2014,07,11,02,58,16.30
2014,07,11,02,59,16.30
2014,07,11,03,00,16.20
2014,07,11,03,01,16.20
2014,07,11,03,02,16.20
2014,07,11,03,03,16.20
2014,07,11,03,04,16.20
2014,07,11,03,05,16.20
2014,07,11,03,06,16.20
2014,07,11,03,07,16.10
2014,07,11,03,08,16.10
2014,07,11,03,09,16.10
2014,07,11,03,10,16.10
2014,07,11,03,11,16.10
2014,07,11,03,12,16.10
2014,07,11,03,13,16.10
2014,07,11,03,14,16.10
2014,07,11,03,15,16.10
2014,07,11,03,16,16.10
2014,07,11,03,17,16.10
2014,07,11,03,18,16.10
2014,07,11,03,19,16.00
2014,07,11,03,20,16.00
2014,07,11,03,21,16.00
2014,07,11,03,22,16.00
2014,07,11,03,23,16.00
2014,07,11,03,24,16.00
2014,07,11,03,25,16.10
2014,07,11,03,26,16.10
2014,07,11,03,27,16.10
2014,07,11,03,28,16.10
2014,07,11,03,29,16.10
2014,07,11,03,30,16.10
2014,07,11,03,31,16.10
2014,07,11,03,32,16.10
2014,07,11,03,33,16.10
2014,07,11,03,34,16.10
2014,07,11,03,35,16.10
2014,07,11,03,36,16.10
2014,07,11,03,37,16.10
2014,07,11,03,38,16.20
2014,07,11,03,39,16.20
2014,07,11,03,40,16.20
2014,07,11,03,41,16.20
2014,07,11,03,42,16.20
2014,07,11,03,43,16.20
2014,07,11,03,44,16.20
2014,07,11,03,45,16.20
2014,07,11,03,46,16.20
2014,07,11,03,47,16.10
2014,07,11,03,48,16.10
2014,07,11,03,49,16.10
2014,07,11,03,50,16.10
2014,07,11,03,51,16.10
2014,07,11,03,52,16.10
2014,07,11,03,53,16.10
2014,07,11,03,54,16.10
2014,07,11,03,55,16.10
2014,07,11,03,56,16.10
2014,07,11,03,57,16.00
2014,07,11,03,58,16.00
2014,07,11,03,59,16.00
2014,07,11,04,00,16.00
2014,07,11,04,01,15.90
2014,07,11,04,02,15.90
2014,07,11,04,03,15.90
2014,07,11,04,04,15.90
2014,07,11,04,05,15.90
2014,07,11,04,06,15.80
2014,07,11,04,07,15.80
2014,07,11,04,08,15.70
2014,07,11,04,09,15.60
2014,07,11,04,10,15.60
2014,07,11,04,11,15.60
2014,07,11,04,12,15.60
2014,07,11,04,13,15.60
2014,07,11,04,14,15.60
2014,07,11,04,15,15.60
2014,07,11,04,16,15.60
2014,07,11,04,17,15.60
2014,07,11,04,18,15.60
2014,07,11,04,19,15.60
2014,07,11,04,20,15.60
2014,07,11,04,21,15.60
2014,07,11,04,22,15.60
2014,07,11,04,23,15.60
2014,07,11,04,24,15.70
2014,07,11,04,25,15.70
2014,07,11,04,26,15.70
2014,07,11,04,27,15.70
2014,07,11,04,28,15.70
2014,07,11,04,29,15.70
2014,07,11,04,30,15.70
2014,07,11,04,31,15.70
2014,07,11,04,32,15.70
2014,07,11,04,33,15.70
2014,07,11,04,34,15.70
2014,07,11,04,35,15.70
2014,07,11,04,36,15.80
2014,07,11,04,37,15.80
2014,07,11,04,38,15.80
2014,07,11,04,39,15.90
2014,07,11,04,40,15.90
2014,07,11,04,41,15.90
2014,07,11,04,42,15.90
2014,07,11,04,43,15.90
2014,07,11,04,44,15.90
2014,07,11,04,45,15.90
2014,07,11,04,46,16.00
2014,07,11,04,47,16.00
2014,07,11,04,48,16.10
2014,07,11,04,49,16.10
2014,07,11,04,50,16.10
2014,07,11,04,51,16.10
2014,07,11,04,52,16.10
2014,07,11,04,53,16.00
2014,07,11,04,54,16.00
2014,07,11,04,55,15.90
2014,07,11,04,56,15.80
2014,07,11,04,57,15.80
2014,07,11,04,58,15.70
2014,07,11,04,59,15.60
2014,07,11,05,00,15.50
2014,07,11,05,01,15.40
2014,07,11,05,02,15.30
2014,07,11,05,03,15.30
2014,07,11,05,04,15.20
2014,07,11,05,05,15.10
2014,07,11,05,06,15.00
2014,07,11,05,07,15.00
2014,07,11,05,08,15.00
2014,07,11,05,09,15.00
2014,07,11,05,10,15.00
2014,07,11,05,11,15.00
2014,07,11,05,12,15.00
2014,07,11,05,13,15.00
2014,07,11,05,14,15.00
2014,07,11,05,15,15.00
2014,07,11,05,16,15.00
2014,07,11,05,17,15.10
2014,07,11,05,18,15.30
2014,07,11,05,19,15.40
2014,07,11,05,20,15.50
2014,07,11,05,21,15.60
2014,07,11,05,22,15.70
2014,07,11,05,23,15.80
2014,07,11,05,24,15.90
2014,07,11,05,25,15.90
2014,07,11,05,26,16.00
2014,07,11,05,27,16.10
2014,07,11,05,28,16.10
2014,07,11,05,29,16.10
2014,07,11,05,30,16.10
2014,07,11,05,31,16.10
2014,07,11,05,32,16.10
2014,07,11,05,33,16.10
2014,07,11,05,34,16.10
2014,07,11,05,35,16.10
2014,07,11,05,36,16.10
2014,07,11,05,37,16.10
2014,07,11,05,38,16.20
2014,07,11,05,39,16.20
2014,07,11,05,40,16.20
2014,07,11,05,41,16.20
2014,07,11,05,42,16.20
2014,07,11,05,43,16.30
2014,07,11,05,44,16.30
2014,07,11,05,45,16.20
2014,07,11,05,46,16.20
2014,07,11,05,47,16.10
2014,07,11,05,48,16.00
2014,07,11,05,49,15.80
2014,07,11,05,50,15.70
2014,07,11,05,51,15.60
2014,07,11,05,52,15.50
2014,07,11,05,53,15.40
2014,07,11,05,54,15.30
2014,07,11,05,55,15.20
2014,07,11,05,56,15.10
2014,07,11,05,57,15.10
2014,07,11,05,58,15.00
2014,07,11,05,59,15.00
2014,07,11,06,00,15.00
2014,07,11,06,01,15.00
2014,07,11,06,02,15.10
2014,07,11,06,03,15.10
2014,07,11,06,04,15.10
2014,07,11,06,05,15.10
2014,07,11,06,06,15.10
2014,07,11,06,07,15.10
2014,07,11,06,08,15.10
2014,07,11,06,09,15.10
2014,07,11,06,10,15.10
2014,07,11,06,11,15.10
2014,07,11,06,12,15.20
2014,07,11,06,13,15.20
2014,07,11,06,14,15.20
2014,07,11,06,15,15.30
2014,07,11,06,16,15.30
2014,07,11,06,17,15.40
2014,07,11,06,18,15.40
2014,07,11,06,19,15.50
2014,07,11,06,20,15.50
2014,07,11,06,21,15.60
2014,07,11,06,22,15.60
2014,07,11,06,23,15.60
2014,07,11,06,24,15.60
2014,07,11,06,25,15.70
2014,07,11,06,26,15.70
2014,07,11,06,27,15.70
2014,07,11,06,28,15.70
2014,07,11,06,29,15.80
2014,07,11,06,30,15.80
2014,07,11,06,31,15.90
2014,07,11,06,32,16.00
2014,07,11,06,33,16.10
2014,07,11,06,34,16.20
2014,07,11,06,35,16.20
2014,07,11,06,36,16.30
2014,07,11,06,37,16.30
2014,07,11,06,38,16.40
2014,07,11,06,39,16.50
2014,07,11,06,40,16.50
2014,07,11,06,41,16.60
2014,07,11,06,42,16.70
2014,07,11,06,43,16.80
2014,07,11,06,44,16.80
2014,07,11,06,45,16.90
2014,07,11,06,46,17.00
2014,07,11,06,47,17.00
2014,07,11,06,48,17.10
2014,07,11,06,49,17.20
2014,07,11,06,50,17.30
2014,07,11,06,51,17.30
2014,07,11,06,52,17.40
2014,07,11,06,53,17.40
2014,07,11,06,54,17.50
2014,07,11,06,55,17.60
2014,07,11,06,56,17.60
2014,07,11,06,57,17.70
2014,07,11,06,58,17.80
2014,07,11,06,59,17.90
2014,07,11,07,00,18.00
2014,07,11,07,01,18.00
2014,07,11,07,02,18.10
2014,07,11,07,03,18.20
2014,07,11,07,04,18.20
2014,07,11,07,05,18.30
2014,07,11,07,06,18.30
2014,07,11,07,07,18.30
2014,07,11,07,08,18.30
2014,07,11,07,09,18.30
2014,07,11,07,10,18.20
2014,07,11,07,11,18.20
2014,07,11,07,12,18.20
2014,07,11,07,13,18.20
2014,07,11,07,14,18.10
2014,07,11,07,15,18.10
2014,07,11,07,16,18.10
2014,07,11,07,17,18.10
2014,07,11,07,18,18.10
2014,07,11,07,19,18.10
2014,07,11,07,20,18.10
2014,07,11,07,21,18.20
2014,07,11,07,22,18.20
2014,07,11,07,23,18.30
2014,07,11,07,24,18.30
2014,07,11,07,25,18.50
2014,07,11,07,26,18.50
2014,07,11,07,27,18.70
2014,07,11,07,28,18.80
2014,07,11,07,29,18.90
2014,07,11,07,30,19.00
2014,07,11,07,31,19.10
2014,07,11,07,32,19.20
2014,07,11,07,33,19.30
2014,07,11,07,34,19.30
2014,07,11,07,35,19.40
2014,07,11,07,36,19.40
2014,07,11,07,37,19.50
2014,07,11,07,38,19.50
2014,07,11,07,39,19.50
2014,07,11,07,40,19.50
2014,07,11,07,41,19.50
2014,07,11,07,42,19.60
2014,07,11,07,43,19.60
2014,07,11,07,44,19.60
2014,07,11,07,45,19.70
2014,07,11,07,46,19.70
2014,07,11,07,47,19.70
2014,07,11,07,48,19.80
2014,07,11,07,49,19.80
2014,07,11,07,50,19.80
2014,07,11,07,51,19.90
2014,07,11,07,52,19.90
2014,07,11,07,53,20.00
2014,07,11,07,54,20.00
2014,07,11,07,55,20.00
2014,07,11,07,56,20.10
2014,07,11,07,57,20.10
2014,07,11,07,58,20.10
2014,07,11,07,59,20.10
2014,07,11,08,00,20.10
2014,07,11,08,01,20.20
2014,07,11,08,02,20.20
2014,07,11,08,03,20.30
2014,07,11,08,04,20.40
2014,07,11,08,05,20.50
2014,07,11,08,06,20.50
2014,07,11,08,07,20.60
2014,07,11,08,08,20.70
2014,07,11,08,09,20.70
2014,07,11,08,10,20.80
2014,07,11,08,11,20.80
2014,07,11,08,12,20.90
2014,07,11,08,13,20.90
2014,07,11,08,14,21.00
2014,07,11,08,15,21.00
2014,07,11,08,16,21.10
2014,07,11,08,17,21.10
2014,07,11,08,18,21.20
2014,07,11,08,19,21.20
2014,07,11,08,20,21.20
2014,07,11,08,21,21.30
2014,07,11,08,22,21.30
2014,07,11,08,23,21.40
2014,07,11,08,24,21.40
2014,07,11,08,25,21.50
2014,07,11,08,26,21.60
2014,07,11,08,27,21.60
2014,07,11,08,28,21.60
2014,07,11,08,29,21.60
2014,07,11,08,30,21.60
2014,07,11,08,31,21.60
2014,07,11,08,32,21.60
2014,07,11,08,33,21.60
2014,07,11,08,34,21.70
2014,07,11,08,35,21.70
2014,07,11,08,36,21.70
2014,07,11,08,37,21.80
2014,07,11,08,38,21.80
2014,07,11,08,39,21.80
2014,07,11,08,40,21.90
2014,07,11,08,41,21.90
2014,07,11,08,42,22.00
2014,07,11,08,43,22.00
2014,07,11,08,44,22.10
2014,07,11,08,45,22.20
2014,07,11,08,46,22.20
2014,07,11,08,47,22.20
2014,07,11,08,48,22.30
2014,07,11,08,49,22.40
2014,07,11,08,50,22.40
2014,07,11,08,51,22.40
2014,07,11,08,52,22.40
2014,07,11,08,53,22.40
2014,07,11,08,54,22.40
2014,07,11,08,55,22.50
2014,07,11,08,56,22.60
2014,07,11,08,57,22.60
2014,07,11,08,58,22.70
2014,07,11,08,59,22.80
2014,07,11,09,00,22.90
2014,07,11,09,01,23.00
2014,07,11,09,02,23.10
2014,07,11,09,03,23.20
2014,07,11,09,04,23.30
2014,07,11,09,05,23.30
2014,07,11,09,06,23.40
2014,07,11,09,07,23.40
2014,07,11,09,08,23.40
2014,07,11,09,09,23.50
2014,07,11,09,10,23.50
2014,07,11,09,11,23.60
2014,07,11,09,12,23.70
2014,07,11,09,13,23.70
2014,07,11,09,14,23.80
2014,07,11,09,15,23.90
2014,07,11,09,16,23.90
2014,07,11,09,17,24.00
2014,07,11,09,18,24.10
2014,07,11,09,19,24.20
2014,07,11,09,20,24.20
2014,07,11,09,21,24.20
2014,07,11,09,22,24.20
2014,07,11,09,23,24.20
2014,07,11,09,24,24.20
2014,07,11,09,25,24.30
2014,07,11,09,26,24.30
2014,07,11,09,27,24.30
2014,07,11,09,28,24.40
2014,07,11,09,29,24.40
2014,07,11,09,30,24.50
2014,07,11,09,31,24.50
2014,07,11,09,32,24.60
2014,07,11,09,33,24.60
2014,07,11,09,34,24.60
2014,07,11,09,35,24.60
2014,07,11,09,36,24.60
2014,07,11,09,37,24.50
2014,07,11,09,38,24.40
2014,07,11,09,39,24.30
2014,07,11,09,40,24.30
2014,07,11,09,41,24.20
2014,07,11,09,42,24.10
2014,07,11,09,43,24.00
2014,07,11,09,44,24.00
2014,07,11,09,45,24.10
2014,07,11,09,46,24.00
2014,07,11,09,47,23.90
2014,07,11,09,48,23.90
2014,07,11,09,49,23.80
2014,07,11,09,50,23.80
2014,07,11,09,51,23.80
2014,07,11,09,52,23.80
2014,07,11,09,53,23.80
2014,07,11,09,54,23.90
2014,07,11,09,55,23.90
2014,07,11,09,56,23.90
2014,07,11,09,57,24.00
2014,07,11,09,58,24.10
2014,07,11,09,59,24.10
2014,07,11,10,00,24.20
2014,07,11,10,01,24.30
2014,07,11,10,02,24.40
2014,07,11,10,03,24.50
2014,07,11,10,04,24.50
2014,07,11,10,05,24.60
2014,07,11,10,06,24.50
2014,07,11,10,07,24.40
2014,07,11,10,08,24.40
2014,07,11,10,09,24.40
2014,07,11,10,10,24.40
2014,07,11,10,11,24.40
2014,07,11,10,12,24.50
2014,07,11,10,13,24.40
2014,07,11,10,14,24.30
2014,07,11,10,15,24.30
2014,07,11,10,16,24.40
2014,07,11,10,17,24.40
2014,07,11,10,18,24.50
2014,07,11,10,19,24.40
2014,07,11,10,20,24.30
2014,07,11,10,21,24.20
2014,07,11,10,22,24.20
2014,07,11,10,23,24.20
2014,07,11,10,24,24.20
2014,07,11,10,25,24.20
2014,07,11,10,26,24.30
2014,07,11,10,27,24.40
2014,07,11,10,28,24.50
2014,07,11,10,29,24.50
2014,07,11,10,30,24.50
2014,07,11,10,31,24.50
2014,07,11,10,32,24.60
2014,07,11,10,33,24.80
2014,07,11,10,34,24.80
2014,07,11,10,35,24.80
2014,07,11,10,36,24.80
2014,07,11,10,37,24.80
2014,07,11,10,38,24.80
2014,07,11,10,39,24.80
2014,07,11,10,40,24.80
2014,07,11,10,41,24.90
2014,07,11,10,42,24.90
2014,07,11,10,43,24.90
2014,07,11,10,44,24.90
2014,07,11,10,45,24.90
2014,07,11,10,46,24.90
2014,07,11,10,47,25.00
2014,07,11,10,48,25.10
2014,07,11,10,49,25.20
2014,07,11,10,50,25.20
2014,07,11,10,51,25.10
2014,07,11,10,52,24.90
2014,07,11,10,53,24.90
2014,07,11,10,54,24.80
2014,07,11,10,55,24.70
2014,07,11,10,56,24.70
2014,07,11,10,57,24.60
2014,07,11,10,58,24.60
2014,07,11,10,59,24.60
2014,07,11,11,00,24.50
2014,07,11,11,01,24.40
2014,07,11,11,02,24.50
2014,07,11,11,03,24.60
2014,07,11,11,04,24.70
2014,07,11,11,05,24.60
2014,07,11,11,06,24.50
2014,07,11,11,07,24.50
2014,07,11,11,08,24.60
2014,07,11,11,09,24.60
2014,07,11,11,10,24.60
2014,07,11,11,11,24.50
2014,07,11,11,12,24.50
2014,07,11,11,13,24.50
2014,07,11,11,14,24.60
2014,07,11,11,15,24.70
2014,07,11,11,16,24.70
2014,07,11,11,17,24.80
2014,07,11,11,18,24.80
2014,07,11,11,19,24.80
2014,07,11,11,20,24.80
2014,07,11,11,21,24.80
2014,07,11,11,22,24.90
2014,07,11,11,23,24.90
2014,07,11,11,24,25.00
2014,07,11,11,25,25.10
2014,07,11,11,26,25.10
2014,07,11,11,27,25.00
2014,07,11,11,28,24.90
2014,07,11,11,29,24.90
2014,07,11,11,30,24.90
2014,07,11,11,31,24.80
2014,07,11,11,32,24.80
2014,07,11,11,33,24.80
2014,07,11,11,34,24.80
2014,07,11,11,35,24.90
2014,07,11,11,36,25.00
2014,07,11,11,37,25.10
2014,07,11,11,38,25.20
2014,07,11,11,39,25.20
2014,07,11,11,40,25.20
2014,07,11,11,41,25.20
2014,07,11,11,42,25.20
2014,07,11,11,43,25.20
2014,07,11,11,44,25.40
2014,07,11,11,45,25.60
2014,07,11,11,46,25.80
2014,07,11,11,47,25.90
2014,07,11,11,48,25.90
2014,07,11,11,49,25.90
2014,07,11,11,50,25.90
2014,07,11,11,51,25.70
2014,07,11,11,52,25.60
2014,07,11,11,53,25.60
2014,07,11,11,54,25.70
2014,07,11,11,55,25.70
2014,07,11,11,56,25.80
2014,07,11,11,57,25.80
2014,07,11,11,58,25.90
2014,07,11,11,59,26.00
2014,07,11,12,00,26.00
2014,07,11,12,01,25.90
2014,07,11,12,02,25.90
2014,07,11,12,03,25.90
2014,07,11,12,04,25.90
2014,07,11,12,05,25.90
2014,07,11,12,06,25.90
2014,07,11,12,07,25.90
2014,07,11,12,08,25.90
2014,07,11,12,09,25.90
2014,07,11,12,10,26.00
2014,07,11,12,11,26.00
2014,07,11,12,12,25.90
2014,07,11,12,13,26.00
2014,07,11,12,14,25.90
2014,07,11,12,15,26.00
2014,07,11,12,16,26.10
2014,07,11,12,17,26.10
2014,07,11,12,18,26.20
2014,07,11,12,19,26.10
2014,07,11,12,20,26.00
2014,07,11,12,21,26.10
2014,07,11,12,22,26.20
2014,07,11,12,23,26.20
2014,07,11,12,24,26.40
2014,07,11,12,25,26.60
2014,07,11,12,26,26.70
2014,07,11,12,27,26.90
2014,07,11,12,28,27.00
2014,07,11,12,29,27.10
2014,07,11,12,30,27.20
2014,07,11,12,31,27.30
2014,07,11,12,32,27.40
2014,07,11,12,33,27.30
2014,07,11,12,34,27.10
2014,07,11,12,35,27.00
2014,07,11,12,36,26.80
2014,07,11,12,37,26.80
2014,07,11,12,38,26.70
2014,07,11,12,39,26.80
2014,07,11,12,40,26.80
2014,07,11,12,41,26.90
2014,07,11,12,42,27.00
2014,07,11,12,43,27.00
2014,07,11,12,44,26.90
2014,07,11,12,45,26.80
2014,07,11,12,46,26.90
2014,07,11,12,47,27.00
2014,07,11,12,48,27.10
2014,07,11,12,49,27.10
2014,07,11,12,50,27.20
2014,07,11,12,51,27.20
2014,07,11,12,52,27.20
2014,07,11,12,53,27.10
2014,07,11,12,54,27.10
2014,07,11,12,55,27.10
2014,07,11,12,56,27.10
2014,07,11,12,57,27.10
2014,07,11,12,58,27.20
2014,07,11,12,59,27.30
2014,07,11,13,00,27.30
2014,07,11,13,01,27.30
2014,07,11,13,02,27.40
2014,07,11,13,03,27.40
2014,07,11,13,04,27.40
2014,07,11,13,05,27.40
2014,07,11,13,06,27.40
2014,07,11,13,07,27.40
2014,07,11,13,08,27.40
2014,07,11,13,09,27.40
2014,07,11,13,10,27.50
2014,07,11,13,11,27.60
2014,07,11,13,12,27.60
2014,07,11,13,13,27.60
2014,07,11,13,14,27.80
2014,07,11,13,15,27.90
2014,07,11,13,16,28.00
2014,07,11,13,17,28.10
2014,07,11,13,18,28.00
2014,07,11,13,19,27.90
2014,07,11,13,20,27.80
2014,07,11,13,21,27.70
2014,07,11,13,22,27.80
2014,07,11,13,23,27.80
2014,07,11,13,24,27.80
2014,07,11,13,25,27.80
2014,07,11,13,26,27.70
2014,07,11,13,27,27.80
2014,07,11,13,28,27.80
2014,07,11,13,29,27.80
2014,07,11,13,30,27.80
2014,07,11,13,31,27.90
2014,07,11,13,32,28.10
2014,07,11,13,33,28.20
2014,07,11,13,34,28.40
2014,07,11,13,35,28.60
2014,07,11,13,36,28.60
2014,07,11,13,37,28.50
2014,07,11,13,38,28.40
2014,07,11,13,39,28.30
2014,07,11,13,40,28.20
2014,07,11,13,41,28.10
2014,07,11,13,42,28.00
2014,07,11,13,43,28.00
2014,07,11,13,44,28.00
2014,07,11,13,45,28.10
2014,07,11,13,46,28.20
2014,07,11,13,47,28.40
2014,07,11,13,48,28.50
2014,07,11,13,49,28.60
2014,07,11,13,50,28.60
2014,07,11,13,51,28.60
2014,07,11,13,52,28.70
2014,07,11,13,53,28.70
2014,07,11,13,54,28.70
2014,07,11,13,55,28.70
2014,07,11,13,56,28.80
2014,07,11,13,57,28.90
2014,07,11,13,58,29.00
2014,07,11,13,59,29.00
2014,07,11,14,00,29.10
2014,07,11,14,01,29.20
2014,07,11,14,02,29.10
2014,07,11,14,03,29.00
2014,07,11,14,04,29.00
2014,07,11,14,05,28.90
2014,07,11,14,06,28.90
2014,07,11,14,07,28.70
2014,07,11,14,08,28.70
2014,07,11,14,09,28.60
2014,07,11,14,10,28.50
2014,07,11,14,11,28.30
2014,07,11,14,12,28.30
2014,07,11,14,13,28.30
2014,07,11,14,14,28.30
2014,07,11,14,15,28.30
2014,07,11,14,16,28.40
2014,07,11,14,17,28.40
2014,07,11,14,18,28.40
2014,07,11,14,19,28.40
2014,07,11,14,20,28.30
2014,07,11,14,21,28.30
2014,07,11,14,22,28.30
2014,07,11,14,23,28.30
2014,07,11,14,24,28.20
2014,07,11,14,25,28.20
2014,07,11,14,26,28.20
2014,07,11,14,27,28.10
2014,07,11,14,28,28.00
2014,07,11,14,29,28.00
2014,07,11,14,30,28.20
2014,07,11,14,31,28.40
2014,07,11,14,32,28.60
2014,07,11,14,33,28.60
2014,07,11,14,34,28.60
2014,07,11,14,35,28.70
2014,07,11,14,36,28.60
2014,07,11,14,37,28.60
2014,07,11,14,38,28.60
2014,07,11,14,39,28.60
2014,07,11,14,40,28.60
2014,07,11,14,41,28.60
2014,07,11,14,42,28.60
2014,07,11,14,43,28.60
2014,07,11,14,44,28.60
2014,07,11,14,45,28.70
2014,07,11,14,46,28.70
2014,07,11,14,47,28.80
2014,07,11,14,48,28.80
2014,07,11,14,49,28.90
2014,07,11,14,50,28.90
2014,07,11,14,51,28.80
2014,07,11,14,52,28.80
2014,07,11,14,53,28.70
2014,07,11,14,54,28.70
2014,07,11,14,55,28.70
2014,07,11,14,56,28.70
2014,07,11,14,57,28.70
2014,07,11,14,58,28.50
2014,07,11,14,59,28.40
2014,07,11,15,00,28.40
2014,07,11,15,01,28.30
2014,07,11,15,02,28.40
2014,07,11,15,03,28.50
2014,07,11,15,04,28.60
2014,07,11,15,05,28.60
2014,07,11,15,06,28.70
2014,07,11,15,07,28.70
2014,07,11,15,08,28.80
2014,07,11,15,09,28.90
2014,07,11,15,10,28.90
2014,07,11,15,11,29.00
2014,07,11,15,12,29.10
2014,07,11,15,13,29.10
2014,07,11,15,14,29.10
2014,07,11,15,15,29.00
2014,07,11,15,16,29.00
2014,07,11,15,17,29.00
2014,07,11,15,18,29.10
2014,07,11,15,19,29.20
2014,07,11,15,20,29.20
2014,07,11,15,21,29.10
2014,07,11,15,22,29.00
2014,07,11,15,23,28.90
2014,07,11,15,24,28.90
2014,07,11,15,25,29.00
2014,07,11,15,26,29.10
2014,07,11,15,27,29.20
2014,07,11,15,28,29.30
2014,07,11,15,29,29.30
2014,07,11,15,30,29.20
2014,07,11,15,31,29.20
2014,07,11,15,32,29.10
2014,07,11,15,33,29.10
2014,07,11,15,34,29.20
2014,07,11,15,35,29.30
2014,07,11,15,36,29.40
2014,07,11,15,37,29.40
2014,07,11,15,38,29.40
2014,07,11,15,39,29.30
2014,07,11,15,40,29.30
2014,07,11,15,41,29.30
2014,07,11,15,42,29.40
2014,07,11,15,43,29.50
2014,07,11,15,44,29.50
2014,07,11,15,45,29.50
2014,07,11,15,46,29.50
2014,07,11,15,47,29.60
2014,07,11,15,48,29.70
2014,07,11,15,49,29.70
2014,07,11,15,50,29.70
2014,07,11,15,51,29.60
2014,07,11,15,52,29.60
2014,07,11,15,53,29.60
2014,07,11,15,54,29.60
2014,07,11,15,55,29.60
2014,07,11,15,56,29.60
2014,07,11,15,57,29.60
2014,07,11,15,58,29.60
2014,07,11,15,59,29.60
2014,07,11,16,00,29.60
2014,07,11,16,01,29.60
2014,07,11,16,02,29.60
2014,07,11,16,03,29.60
2014,07,11,16,04,29.60
2014,07,11,16,05,29.60
2014,07,11,16,06,29.50
2014,07,11,16,07,29.50
2014,07,11,16,08,29.50
2014,07,11,16,09,29.50
2014,07,11,16,10,29.60
2014,07,11,16,11,29.70
2014,07,11,16,12,29.70
2014,07,11,16,13,29.80
2014,07,11,16,14,29.90
2014,07,11,16,15,30.00
2014,07,11,16,16,30.10
2014,07,11,16,17,30.20
2014,07,11,16,18,30.10
2014,07,11,16,19,30.10
2014,07,11,16,20,30.20
2014,07,11,16,21,30.30
2014,07,11,16,22,30.20
2014,07,11,16,23,30.10
2014,07,11,16,24,30.00
2014,07,11,16,25,29.90
2014,07,11,16,26,29.80
2014,07,11,16,27,29.80
2014,07,11,16,28,29.80
2014,07,11,16,29,29.80
2014,07,11,16,30,29.70
2014,07,11,16,31,29.80
2014,07,11,16,32,29.80
2014,07,11,16,33,29.80
2014,07,11,16,34,29.80
2014,07,11,16,35,29.90
2014,07,11,16,36,29.90
2014,07,11,16,37,29.90
2014,07,11,16,38,29.90
2014,07,11,16,39,29.90
2014,07,11,16,40,29.90
2014,07,11,16,41,30.00
2014,07,11,16,42,30.00
2014,07,11,16,43,30.10
2014,07,11,16,44,30.10
2014,07,11,16,45,30.20
2014,07,11,16,46,30.30
2014,07,11,16,47,30.30
2014,07,11,16,48,30.30
2014,07,11,16,49,30.30
2014,07,11,16,50,30.20
2014,07,11,16,51,30.20
2014,07,11,16,52,30.30
2014,07,11,16,53,30.30
2014,07,11,16,54,30.30
2014,07,11,16,55,30.30
2014,07,11,16,56,30.20
2014,07,11,16,57,30.10
2014,07,11,16,58,30.10
2014,07,11,16,59,30.00
2014,07,11,17,00,30.10
2014,07,11,17,01,30.20
2014,07,11,17,02,30.30
2014,07,11,17,03,30.40
2014,07,11,17,04,30.40
2014,07,11,17,05,30.40
2014,07,11,17,06,30.40
2014,07,11,17,07,30.30
2014,07,11,17,08,30.20
2014,07,11,17,09,30.20
2014,07,11,17,10,30.10
2014,07,11,17,11,30.10
2014,07,11,17,12,30.10
2014,07,11,17,13,30.00
2014,07,11,17,14,30.10
2014,07,11,17,15,30.10
2014,07,11,17,16,30.30
2014,07,11,17,17,30.30
2014,07,11,17,18,30.30
2014,07,11,17,19,30.40